Regional Weather Roundup
Issued by NWS

Home | Current Version | Previous Version | Text Only | Print | Product List | Glossary Off
Versions: 1 2 3 4 5 6 7 8 9 10 11 12 13 14 15 16 17 18 19 20 21 22 23 24 25 26 27

000
ASUS45 KSLC 201510
RWRUT

UTAH REGIONAL WEATHER ROUNDUP
NATIONAL WEATHER SERVICE SALT LAKE CITY UT
900 AM MDT SUN AUG 20 2017

UTZ001>011-023>025-201600-

NORTHERN UTAH

CITY           SKY/WX    TMP DP  RH WIND       PRES   REMARKS
BRIGHAM CITY   MOSUNNY   66  39  37 NW6       30.06S
HILL AFB       MOSUNNY   70  38  31 E14       30.08R
LOGAN          MOSUNNY   64  43  46 CALM      30.09R
OGDEN          MOSUNNY   73  39  29 NE6       30.05R
SALT LAKE CITY MOSUNNY   78  46  32 SE8       30.03S
TOOELE VALLEY  MOSUNNY   79  46  31 W6        30.06S
WENDOVER       SUNNY     77  32  19 NE3       30.06R
HEBER CITY     MOSUNNY   61  41  48 CALM      30.17S
WEST JORDAN    SUNNY     77  54  44 E6        30.07S

$$

UTZ011>015-024>027-201600-

CENTRAL/NORTHEAST UTAH

CITY           SKY/WX    TMP DP  RH WIND       PRES   REMARKS
PROVO AIRPORT  SUNNY     72  46  39 SE9       30.09S
MOAB/CANYONLAN MOSUNNY   77  37  23 S7        30.07R
DELTA          SUNNY     73  32  21 S7        30.11R
PRICE          SUNNY     67  40  37 S5        30.17R
ROOSEVELT      SUNNY     68  41  37 CALM      30.16S
VERNAL         SUNNY     69  46  43 S3        30.14S

$$

UTZ013>016-019>022-027-201600-

SOUTHERN UTAH

CITY           SKY/WX    TMP DP  RH WIND       PRES   REMARKS
BRYCE CANYON   PTSUNNY   65  47  52 NW8       30.34R
CEDAR CITY     MOSUNNY   70  44  39 NW3       30.18R
MILFORD        SUNNY     69  36  29 S10       30.13S
ST GEORGE      MOSUNNY   77  47  34 S6        30.01S
HANKSVILLE     MOSUNNY   68  36  30 CALM      30.10R
BLANDING       MOSUNNY   75  35  22 CALM      30.25R

$$

REGIONAL REPORTS     COLORADO/ARIZONA

CITY           SKY/WX    TMP DP  RH WIND       PRES   REMARKS
CRAIG, CO      SUNNY     62  38  40 CALM      30.23R
GRAND JUNCTION SUNNY     73  39  29 SE13      30.12R
RIFLE, CO      SUNNY     63  42  46 CALM      30.20R
MONTROSE, CO   SUNNY     67  41  38 S6        30.20S
CORTEZ, CO     SUNNY     68  40  35 CALM      30.18R
COLORADO CITY    N/A     70  48  46 E3        30.17S
PAGE, AZ       MOSUNNY   82  39  21 SW5       30.07R
GRAND CANYON   PTSUNNY   61  45  55 CALM      30.28R
KINGMAN, AZ    SUNNY     81  47  30 SW3       30.04R
FLAGSTAFF, AZ  PTSUNNY   62  50  64 W5        30.30S

$$

REGIONAL REPORTS    NEVADA/IDAHO/WYOMING

CITY           SKY/WX    TMP DP  RH WIND       PRES   REMARKS
LAS VEGAS, NV  MOSUNNY   85  47  26 W3        29.92R
ELY, NY        SUNNY     63  35  35 S9        30.19S
ELKO, NV       PTSUNNY   62  32  32 CALM      30.13R
POCATELLO, ID  SUNNY     66  35  31 SW10      30.13R
BURLEY, ID     SUNNY     63  40  42 CALM      30.10R
FORT BRIDGER,    N/A     71  36  27 W5        30.26R
EVANSTON, WY   SUNNY     64  38  38 S7        30.25R
ROCK SPRINGS,  SUNNY     67  35  30 CALM      30.23R

$$




USA.gov is the U.S. government's official web portal to all federal, state and local government web resources and services.